SL-24 PLAT, 40049

Orbit data source: Space-Track

SL-24 PLAT, 40049 is space debris in SSO originally from a launch on Thu, 19 Jun 2014 UTC launched from the Orenburg, Russia (OREN). Debris objects in space refer to the collection of defunct objects orbiting the Earth. Examples of debris include non-operational satellites, rocket bodies, and fragments generated from explosions, collisions, or faulty payload assembly.

Loading next visibility...
Identifier
40049, 2014-033AR
Orbit
SSO
Country
Flag of CISCIS
Related business
Manufacturer
Yuzhnoe
Mission
Spacecraft
Bus & Motor
Unknown
Mass
Unknown
Launch date (UTC)
2014-06-19 (12 years ago)
Launch vehicle
Unknown
Launch site
Orenburg, Russia (OREN)
Object type
Payload
Rocket body
Debris
Shape & HBR
Unknown shape, 2.4 m
Radar Cross Section
Large (>1 m²)

Expand to show TLE details & history
Last TLE update: 15 hours ago

TLE from 15 hours ago
0 SL-24 PLAT
1 40049U 14033AR  26123.90018007  .00005565  00000-0  34766-3 0  9997
2 40049  98.0995 119.9746 0007613  51.9366 308.2548 15.09895549645531
Epoch: 2026-05-03T21:36Z
TLE epoch observation values (Epoch: 2026-05-03T21:36:15.558Z)
Latitude
0.00006°
Longitude
-65.88733°
Altitude
536.317 km
Speed
7.596 km/s
True Right ascension
07h 59m 53s
True Declination
0° 00' 00"
Sunlit
Object was in daylight at epoch
Visualization orbit readout
Latitude
Unknown
Longitude
Unknown
Altitude
Unknown
Speed
Unknown
Apparent Right ascension
Unknown
Apparent Declination
Unknown
Sunlit
N/A
Visualization observer readout
Local Sidereal Time
20:12:41
Azimuth
Unknown
Elevation
Unknown
Doppler factor
Unknown
Orbital elements
Apogee altitude
538.791 km
Perigee altitude
528.267 km
Semi-major axis
6,911.666 km
Eccentricity
0.00076
Inclination
98.0995°
RAAN
119.9746°
Arg. of periapsis
51.9366°
True anomaly
308.18625°
Mean anomaly
308.2548°
Eccentric anomaly
308.22053°
Mean motion
3.77719 °/min
Orbital period
95.31 mins
BSTAR
0.00034766
Loading maneuver chart data...
Computing Atmospheric mass density...
Loading historical data...
Loading historical data...
Loading historical data...
Loading historical data...
Loading historical data...
Loading historical data...
Loading historical data...

Documentation

Showing up to 5 results
|